Time,TemperatureF,DewpointF,PressureIn,WindDirection,WindDirectionDegrees,WindSpeedMPH,WindSpeedGustMPH,Humidity,HourlyPrecipIn,Conditions,Clouds,dailyrainin,SoftwareType,DateUTC
2013-01-04 00:02:00,36.2,34.4,30.28,NNE,19,0.0,0.0,93,0.00,CLR,,0.00,WeatherDisplay:10.37,2013-01-04 08:02:00,
2013-01-04 00:07:00,36.0,33.9,30.28,NNW,338,0.0,0.0,92,0.00,CLR,,0.00,WeatherDisplay:10.37,2013-01-04 08:07:00,
2013-01-04 00:13:00,35.9,33.8,30.28,NNW,338,0.0,0.0,92,0.00,CLR,,0.00,WeatherDisplay:10.37,2013-01-04 08:13:00,
2013-01-04 00:18:00,35.4,33.0,30.28,NNE,19,0.0,0.0,91,0.00,CLR,,0.00,WeatherDisplay:10.37,2013-01-04 08:18:00,
2013-01-04 00:23:00,35.0,32.9,30.28,NE,34,0.0,0.0,92,0.00,CLR,,0.00,WeatherDisplay:10.37,2013-01-04 08:23:00,
2013-01-04 00:28:00,35.0,32.9,30.28,NE,37,0.0,0.0,92,0.00,CLR,,0.00,WeatherDisplay:10.37,2013-01-04 08:28:00,
2013-01-04 00:33:00,35.1,33.3,30.28,NE,36,0.0,0.0,93,0.00,CLR,,0.00,WeatherDisplay:10.37,2013-01-04 08:33:00,
2013-01-04 00:38:00,35.2,33.4,30.28,NE,36,0.0,0.0,93,0.00,CLR,,0.00,WeatherDisplay:10.37,2013-01-04 08:38:00,
2013-01-04 00:43:00,35.2,33.4,30.28,NE,36,0.0,0.0,93,0.00,CLR,,0.00,WeatherDisplay:10.37,2013-01-04 08:43:00,
2013-01-04 00:48:00,35.2,33.4,30.27,NE,37,0.0,0.0,93,0.00,CLR,,0.00,WeatherDisplay:10.37,2013-01-04 08:48:00,
2013-01-04 00:53:00,35.1,33.3,30.27,NE,37,0.0,0.0,93,0.00,CLR,,0.00,WeatherDisplay:10.37,2013-01-04 08:53:00,
2013-01-04 00:58:00,34.6,32.5,30.28,WSW,240,0.0,0.0,92,0.00,CLR,,0.00,WeatherDisplay:10.37,2013-01-04 08:58:00,
2013-01-04 01:04:00,34.4,32.6,30.28,WSW,239,0.0,0.0,93,0.00,CLR,,0.00,WeatherDisplay:10.37,2013-01-04 09:04:00,
2013-01-04 01:09:00,34.2,32.4,30.28,WSW,239,0.0,0.0,93,0.00,CLR,,0.00,WeatherDisplay:10.37,2013-01-04 09:09:00,
2013-01-04 01:14:00,34.3,32.5,30.28,WSW,239,0.0,0.0,93,0.00,CLR,,0.00,WeatherDisplay:10.37,2013-01-04 09:14:00,
2013-01-04 01:19:00,34.2,32.4,30.28,WSW,239,0.0,0.0,93,0.00,CLR,,0.00,WeatherDisplay:10.37,2013-01-04 09:19:00,
2013-01-04 01:24:00,34.4,32.6,30.28,WSW,239,0.0,0.0,93,0.00,CLR,,0.00,WeatherDisplay:10.37,2013-01-04 09:24:00,
2013-01-04 01:29:00,34.1,32.3,30.28,WSW,239,0.0,0.0,93,0.00,CLR,,0.00,WeatherDisplay:10.37,2013-01-04 09:29:00,
2013-01-04 01:34:00,34.1,32.3,30.28,WSW,239,0.0,0.0,93,0.00,CLR,,0.00,WeatherDisplay:10.37,2013-01-04 09:34:00,
2013-01-04 01:39:00,34.0,32.2,30.28,WSW,239,0.0,0.0,93,0.00,CLR,,0.00,WeatherDisplay:10.37,2013-01-04 09:39:00,
2013-01-04 01:44:00,33.8,32.0,30.28,WSW,239,0.0,0.0,93,0.00,CLR,,0.00,WeatherDisplay:10.37,2013-01-04 09:44:00,
2013-01-04 01:49:00,33.5,31.7,30.28,WSW,239,0.0,0.0,93,0.00,CLR,,0.00,WeatherDisplay:10.37,2013-01-04 09:49:00,
2013-01-04 01:54:00,33.3,31.5,30.28,WSW,239,0.0,0.0,93,0.00,CLR,,0.00,WeatherDisplay:10.37,2013-01-04 09:54:00,
2013-01-04 01:59:00,33.1,31.3,30.28,WSW,239,0.0,0.0,93,0.00,CLR,,0.00,WeatherDisplay:10.37,2013-01-04 09:59:00,
2013-01-04 02:04:00,33.2,31.7,30.28,WSW,240,0.0,0.0,94,0.00,CLR,,0.00,WeatherDisplay:10.37,2013-01-04 10:04:00,
2013-01-04 02:09:00,33.4,31.9,30.28,WSW,239,0.0,0.0,94,0.00,CLR,,0.00,WeatherDisplay:10.37,2013-01-04 10:09:00,
2013-01-04 02:15:00,33.8,32.3,30.28,WSW,239,0.0,0.0,94,0.00,CLR,,0.00,WeatherDisplay:10.37,2013-01-04 10:15:00,
2013-01-04 02:20:00,34.0,32.5,30.28,WSW,239,0.0,0.0,94,0.00,CLR,,0.00,WeatherDisplay:10.37,2013-01-04 10:20:00,
2013-01-04 02:25:00,34.0,32.5,30.28,WSW,239,0.0,0.0,94,0.00,CLR,,0.00,WeatherDisplay:10.37,2013-01-04 10:25:00,
2013-01-04 02:30:00,33.9,32.4,30.28,WSW,239,0.0,0.0,94,0.00,CLR,,0.00,WeatherDisplay:10.37,2013-01-04 10:30:00,
2013-01-04 02:35:00,33.5,31.7,30.28,WSW,239,0.0,0.0,93,0.00,CLR,,0.00,WeatherDisplay:10.37,2013-01-04 10:35:00,
2013-01-04 02:40:00,34.2,32.7,30.28,WSW,240,0.0,0.0,94,0.00,CLR,,0.00,WeatherDisplay:10.37,2013-01-04 10:40:00,
2013-01-04 02:45:00,34.3,32.8,30.28,WSW,251,0.0,0.0,94,0.00,CLR,,0.00,WeatherDisplay:10.37,2013-01-04 10:45:00,
2013-01-04 02:50:00,34.5,33.0,30.28,WSW,252,0.0,0.0,94,0.00,CLR,,0.00,WeatherDisplay:10.37,2013-01-04 10:50:00,
2013-01-04 02:55:00,34.2,32.4,30.28,WSW,250,0.0,0.0,93,0.00,CLR,,0.00,WeatherDisplay:10.37,2013-01-04 10:55:00,
2013-01-04 03:00:00,34.6,33.1,30.28,West,264,0.0,0.0,94,0.00,CLR,,0.00,WeatherDisplay:10.37,2013-01-04 11:00:00,
2013-01-04 03:05:00,34.2,32.4,30.28,West,264,0.0,0.0,93,0.00,CLR,,0.00,WeatherDisplay:10.37,2013-01-04 11:05:00,
2013-01-04 03:10:00,33.9,32.1,30.28,West,264,0.0,0.0,93,0.00,CLR,,0.00,WeatherDisplay:10.37,2013-01-04 11:10:00,
2013-01-04 03:15:00,34.0,32.2,30.28,West,264,0.0,0.0,93,0.00,CLR,,0.00,WeatherDisplay:10.37,2013-01-04 11:15:00,
2013-01-04 03:21:00,33.9,32.1,30.28,West,264,0.0,0.0,93,0.00,CLR,,0.00,WeatherDisplay:10.37,2013-01-04 11:21:00,
2013-01-04 03:26:00,33.6,31.8,30.28,West,264,0.0,0.0,93,0.00,CLR,,0.00,WeatherDisplay:10.37,2013-01-04 11:26:00,
2013-01-04 03:31:00,33.5,31.7,30.28,West,264,0.0,0.0,93,0.00,CLR,,0.00,WeatherDisplay:10.37,2013-01-04 11:31:00,
2013-01-04 03:36:00,33.4,31.6,30.28,West,264,0.0,0.0,93,0.00,CLR,,0.00,WeatherDisplay:10.37,2013-01-04 11:36:00,
2013-01-04 03:41:00,33.3,31.5,30.27,West,264,0.0,0.0,93,0.00,CLR,,0.00,WeatherDisplay:10.37,2013-01-04 11:41:00,
2013-01-04 03:46:00,33.4,31.9,30.27,West,264,0.0,0.0,94,0.00,CLR,,0.00,WeatherDisplay:10.37,2013-01-04 11:46:00,
2013-01-04 03:51:00,33.7,32.2,30.27,West,264,0.0,0.0,94,0.00,CLR,,0.00,WeatherDisplay:10.37,2013-01-04 11:51:00,
2013-01-04 03:56:00,34.0,32.5,30.27,West,264,0.0,0.0,94,0.00,CLR,,0.00,WeatherDisplay:10.37,2013-01-04 11:56:00,
2013-01-04 04:01:00,33.9,32.4,30.27,West,264,0.0,0.0,94,0.00,CLR,,0.00,WeatherDisplay:10.37,2013-01-04 12:01:00,
2013-01-04 04:06:00,33.6,31.8,30.27,West,264,0.0,0.0,93,0.00,CLR,,0.00,WeatherDisplay:10.37,2013-01-04 12:06:00,
2013-01-04 04:11:00,33.3,31.8,30.27,West,264,0.0,0.0,94,0.00,CLR,,0.00,WeatherDisplay:10.37,2013-01-04 12:11:00,
2013-01-04 04:16:00,33.4,31.9,30.26,West,264,0.0,0.0,94,0.00,CLR,,0.00,WeatherDisplay:10.37,2013-01-04 12:16:00,
2013-01-04 04:22:00,33.4,31.9,30.26,West,264,0.0,0.0,94,0.00,CLR,,0.00,WeatherDisplay:10.37,2013-01-04 12:22:00,
2013-01-04 04:27:00,33.3,31.8,30.26,West,264,0.0,0.0,94,0.00,CLR,,0.00,WeatherDisplay:10.37,2013-01-04 12:27:00,
2013-01-04 04:32:00,33.1,31.6,30.26,West,264,0.0,0.0,94,0.00,CLR,,0.00,WeatherDisplay:10.37,2013-01-04 12:32:00,
2013-01-04 04:37:00,33.1,31.6,30.26,West,264,0.0,0.0,94,0.00,CLR,,0.00,WeatherDisplay:10.37,2013-01-04 12:37:00,
2013-01-04 04:42:00,32.8,31.3,30.26,West,264,0.0,0.0,94,0.00,CLR,,0.00,WeatherDisplay:10.37,2013-01-04 12:42:00,
2013-01-04 04:47:00,32.4,30.9,30.26,West,264,0.0,0.0,94,0.00,CLR,,0.00,WeatherDisplay:10.37,2013-01-04 12:47:00,
2013-01-04 04:52:00,32.3,30.8,30.27,West,264,0.0,0.0,94,0.00,CLR,,0.00,WeatherDisplay:10.37,2013-01-04 12:52:00,
2013-01-04 04:57:00,32.4,30.9,30.27,West,264,0.0,0.0,94,0.00,CLR,,0.00,WeatherDisplay:10.37,2013-01-04 12:57:00,
2013-01-04 05:02:00,32.3,30.8,30.27,West,264,0.0,0.0,94,0.00,CLR,,0.00,WeatherDisplay:10.37,2013-01-04 13:02:00,
2013-01-04 05:07:00,32.1,30.6,30.27,West,264,0.0,0.0,94,0.00,CLR,,0.00,WeatherDisplay:10.37,2013-01-04 13:07:00,
2013-01-04 05:12:00,32.3,30.8,30.28,West,264,0.0,0.0,94,0.00,CLR,,0.00,WeatherDisplay:10.37,2013-01-04 13:12:00,
2013-01-04 05:17:00,32.5,31.0,30.28,West,264,0.0,0.0,94,0.00,CLR,,0.00,WeatherDisplay:10.37,2013-01-04 13:17:00,
2013-01-04 05:23:00,32.9,31.6,30.28,West,264,0.0,0.0,95,0.00,CLR,,0.00,WeatherDisplay:10.37,2013-01-04 13:23:00,
2013-01-04 05:28:00,32.5,31.0,30.28,West,264,0.0,0.0,94,0.00,CLR,,0.00,WeatherDisplay:10.37,2013-01-04 13:28:00,
2013-01-04 05:33:00,32.4,30.9,30.28,West,264,0.0,0.0,94,0.00,CLR,,0.00,WeatherDisplay:10.37,2013-01-04 13:33:00,
2013-01-04 05:38:00,32.5,31.0,30.27,West,264,0.0,0.0,94,0.00,CLR,,0.00,WeatherDisplay:10.37,2013-01-04 13:38:00,
2013-01-04 05:43:00,32.3,30.8,30.27,West,264,0.0,0.0,94,0.00,CLR,,0.00,WeatherDisplay:10.37,2013-01-04 13:43:00,
2013-01-04 05:48:00,32.2,30.7,30.28,West,264,0.0,0.0,94,0.00,CLR,,0.00,WeatherDisplay:10.37,2013-01-04 13:48:00,
2013-01-04 05:53:00,32.2,30.7,30.28,West,264,0.0,0.0,94,0.00,CLR,,0.00,WeatherDisplay:10.37,2013-01-04 13:53:00,
2013-01-04 05:58:00,32.3,30.8,30.28,West,264,0.0,0.0,94,0.00,CLR,,0.00,WeatherDisplay:10.37,2013-01-04 13:58:00,
2013-01-04 06:03:00,31.7,30.2,30.28,West,264,0.0,0.0,94,0.00,CLR,,0.00,WeatherDisplay:10.37,2013-01-04 14:03:00,
2013-01-04 06:08:00,31.5,30.0,30.29,West,264,0.0,0.0,94,0.00,CLR,,0.00,WeatherDisplay:10.37,2013-01-04 14:08:00,
2013-01-04 06:13:00,31.3,29.8,30.29,West,264,0.0,0.0,94,0.00,CLR,,0.00,WeatherDisplay:10.37,2013-01-04 14:13:00,
2013-01-04 06:19:00,31.2,29.7,30.29,West,264,0.0,0.0,94,0.00,CLR,,0.00,WeatherDisplay:10.37,2013-01-04 14:19:00,
2013-01-04 06:24:00,31.3,29.8,30.29,WSW,242,0.0,0.0,94,0.00,CLR,,0.00,WeatherDisplay:10.37,2013-01-04 14:24:00,
2013-01-04 06:29:00,31.4,30.1,30.29,WSW,255,1.0,0.0,95,0.00,CLR,,0.00,WeatherDisplay:10.37,2013-01-04 14:29:00,
2013-01-04 06:34:00,31.7,30.4,30.29,WSW,243,1.1,1.1,95,0.00,CLR,,0.00,WeatherDisplay:10.37,2013-01-04 14:34:00,
2013-01-04 06:39:00,31.8,30.5,30.29,WSW,243,0.0,0.0,95,0.00,CLR,,0.00,WeatherDisplay:10.37,2013-01-04 14:39:00,
2013-01-04 06:44:00,31.2,29.7,30.28,WSW,243,1.1,1.1,94,0.00,CLR,,0.00,WeatherDisplay:10.37,2013-01-04 14:44:00,
2013-01-04 06:49:00,30.7,29.2,30.28,WSW,243,0.0,0.0,94,0.00,CLR,,0.00,WeatherDisplay:10.37,2013-01-04 14:49:00,
2013-01-04 06:54:00,30.4,28.9,30.28,WSW,243,0.0,0.0,94,0.00,CLR,,0.00,WeatherDisplay:10.37,2013-01-04 14:54:00,
2013-01-04 06:59:00,30.3,28.8,30.28,WSW,243,0.0,0.0,94,0.00,CLR,,0.00,WeatherDisplay:10.37,2013-01-04 14:59:00,
2013-01-04 07:04:00,30.4,28.9,30.28,WSW,243,0.0,0.0,94,0.00,CLR,,0.00,WeatherDisplay:10.37,2013-01-04 15:04:00,
2013-01-04 07:09:00,30.5,29.2,30.28,WSW,243,0.0,0.0,95,0.00,CLR,,0.00,WeatherDisplay:10.37,2013-01-04 15:09:00,
2013-01-04 07:14:00,30.4,28.9,30.28,WSW,243,0.0,0.0,94,0.00,CLR,,0.00,WeatherDisplay:10.37,2013-01-04 15:14:00,
2013-01-04 07:19:00,30.6,29.3,30.28,WSW,245,0.0,0.4,95,0.00,CLR,,0.00,WeatherDisplay:10.37,2013-01-04 15:19:00,
2013-01-04 07:25:00,30.5,29.2,30.28,WSW,246,1.1,1.1,95,0.00,CLR,,0.00,WeatherDisplay:10.37,2013-01-04 15:25:00,
2013-01-04 07:30:00,30.7,29.4,30.28,WSW,246,0.0,0.0,95,0.00,CLR,,0.00,WeatherDisplay:10.37,2013-01-04 15:30:00,
2013-01-04 07:35:00,31.5,30.2,30.28,West,260,1.1,1.1,95,0.00,CLR,,0.00,WeatherDisplay:10.37,2013-01-04 15:35:00,
2013-01-04 07:40:00,31.9,30.6,30.29,West,260,0.0,0.0,95,0.00,CLR,,0.00,WeatherDisplay:10.37,2013-01-04 15:40:00,
2013-01-04 07:45:00,32.5,31.2,30.29,WNW,285,1.1,1.1,95,0.00,CLR,,0.00,WeatherDisplay:10.37,2013-01-04 15:45:00,
2013-01-04 07:50:00,32.7,31.4,30.29,NW,304,1.1,1.1,95,0.00,CLR,,0.00,WeatherDisplay:10.37,2013-01-04 15:50:00,
2013-01-04 07:55:00,31.9,30.6,30.29,NW,304,0.0,0.0,95,0.00,CLR,,0.00,WeatherDisplay:10.37,2013-01-04 15:55:00,
2013-01-04 08:00:00,31.1,29.6,30.30,NW,304,0.0,0.0,94,0.00,CLR,,0.00,WeatherDisplay:10.37,2013-01-04 16:00:00,
2013-01-04 08:05:00,31.1,29.6,30.30,WNW,303,0.0,0.0,94,0.00,CLR,,0.00,WeatherDisplay:10.37,2013-01-04 16:05:00,
2013-01-04 08:10:00,31.3,29.8,30.30,WNW,303,0.0,0.0,94,0.00,CLR,,0.00,WeatherDisplay:10.37,2013-01-04 16:10:00,
2013-01-04 08:15:00,31.3,29.8,30.30,NW,304,0.0,0.0,94,0.00,CLR,,0.00,WeatherDisplay:10.37,2013-01-04 16:15:00,
2013-01-04 08:20:00,31.6,30.3,30.30,ENE,63,0.0,0.0,95,0.00,CLR,,0.00,WeatherDisplay:10.37,2013-01-04 16:20:00,
2013-01-04 08:26:00,32.3,31.0,30.30,ENE,62,0.0,0.0,95,0.00,CLR,,0.00,WeatherDisplay:10.37,2013-01-04 16:26:00,
2013-01-04 08:31:00,32.7,31.4,30.30,ENE,69,2.0,2.0,95,0.00,CLR,,0.00,WeatherDisplay:10.37,2013-01-04 16:31:00,
2013-01-04 08:36:00,33.4,32.1,30.30,NE,53,3.5,3.5,95,0.00,CLR,,0.00,WeatherDisplay:10.37,2013-01-04 16:36:00,
2013-01-04 08:41:00,33.9,32.6,30.30,NNE,15,3.5,3.5,95,0.00,CLR,,0.00,WeatherDisplay:10.37,2013-01-04 16:41:00,
2013-01-04 08:46:00,34.2,32.9,30.30,North,349,2.3,2.3,95,0.00,CLR,,0.00,WeatherDisplay:10.37,2013-01-04 16:46:00,
2013-01-04 08:51:00,34.7,33.4,30.30,NNW,340,1.1,0.0,95,0.00,CLR,,0.00,WeatherDisplay:10.37,2013-01-04 16:51:00,
2013-01-04 08:56:00,35.1,33.8,30.31,NNW,334,1.1,1.1,95,0.00,CLR,,0.00,WeatherDisplay:10.37,2013-01-04 16:56:00,
2013-01-04 09:01:00,35.3,34.0,30.31,North,349,1.1,1.1,95,0.00,CLR,,0.00,WeatherDisplay:10.37,2013-01-04 17:01:00,
2013-01-04 09:06:00,35.5,33.9,30.31,North,8,2.3,2.3,94,0.00,CLR,,0.00,WeatherDisplay:10.37,2013-01-04 17:06:00,
2013-01-04 09:12:00,35.9,34.3,30.31,North,357,2.3,2.3,94,0.00,CLR,,0.00,WeatherDisplay:10.37,2013-01-04 17:12:00,
2013-01-04 09:17:00,36.5,34.9,30.31,North,356,2.3,2.3,94,0.00,CLR,,0.00,WeatherDisplay:10.37,2013-01-04 17:17:00,
2013-01-04 09:22:00,37.1,35.5,30.31,NE,44,2.3,2.3,94,0.00,CLR,,0.00,WeatherDisplay:10.37,2013-01-04 17:22:00,
2013-01-04 09:27:00,37.7,35.9,30.31,NE,50,3.5,3.5,93,0.00,CLR,,0.00,WeatherDisplay:10.37,2013-01-04 17:27:00,
2013-01-04 09:32:00,38.4,36.3,30.31,ENE,58,3.5,3.5,92,0.00,CLR,,0.00,WeatherDisplay:10.37,2013-01-04 17:32:00,
2013-01-04 09:37:00,39.0,36.6,30.31,East,79,2.3,2.3,91,0.00,CLR,,0.00,WeatherDisplay:10.37,2013-01-04 17:37:00,
2013-01-04 09:42:00,39.6,37.2,30.31,ENE,64,3.5,3.5,91,0.00,CLR,,0.00,WeatherDisplay:10.37,2013-01-04 17:42:00,
2013-01-04 09:47:00,40.0,36.7,30.31,NE,36,2.3,2.3,88,0.00,CLR,,0.00,WeatherDisplay:10.37,2013-01-04 17:47:00,
2013-01-04 09:52:00,40.7,37.4,30.31,ENE,78,2.3,2.3,88,0.00,CLR,,0.00,WeatherDisplay:10.37,2013-01-04 17:52:00,
2013-01-04 09:57:00,41.5,38.2,30.31,ESE,115,1.1,1.1,88,0.00,CLR,,0.00,WeatherDisplay:10.37,2013-01-04 17:57:00,
2013-01-04 10:02:00,42.4,38.2,30.31,South,177,1.1,1.1,85,0.00,CLR,,0.00,WeatherDisplay:10.37,2013-01-04 18:02:00,
2013-01-04 10:07:00,43.0,38.5,30.31,South,177,0.0,0.0,84,0.00,CLR,,0.00,WeatherDisplay:10.37,2013-01-04 18:07:00,
2013-01-04 10:12:00,43.5,38.1,30.31,South,177,0.0,0.0,81,0.00,CLR,,0.00,WeatherDisplay:10.37,2013-01-04 18:12:00,
2013-01-04 10:17:00,43.6,37.8,30.31,East,79,1.1,0.0,80,0.00,CLR,,0.00,WeatherDisplay:10.37,2013-01-04 18:17:00,
2013-01-04 10:22:00,44.1,38.3,30.31,East,79,1.1,0.0,80,0.00,CLR,,0.00,WeatherDisplay:10.37,2013-01-04 18:22:00,
2013-01-04 10:27:00,44.7,37.9,30.30,ESE,117,1.1,1.1,77,0.00,CLR,,0.00,WeatherDisplay:10.37,2013-01-04 18:27:00,
2013-01-04 10:32:00,45.1,37.6,30.30,NE,39,1.1,0.0,75,0.00,CLR,,0.00,WeatherDisplay:10.37,2013-01-04 18:32:00,
2013-01-04 10:37:00,45.4,37.6,30.30,NNE,13,1.1,0.0,74,0.00,CLR,,0.00,WeatherDisplay:10.37,2013-01-04 18:37:00,
2013-01-04 10:43:00,45.7,37.5,30.30,North,9,1.1,1.1,73,0.00,CLR,,0.00,WeatherDisplay:10.37,2013-01-04 18:43:00,
2013-01-04 10:48:00,46.3,37.8,30.30,North,8,0.0,0.0,72,0.00,CLR,,0.00,WeatherDisplay:10.37,2013-01-04 18:48:00,
2013-01-04 10:54:00,46.7,38.5,30.30,NNW,338,1.0,1.0,73,0.00,CLR,,0.00,WeatherDisplay:10.37,2013-01-04 18:54:00,
2013-01-04 10:59:00,47.3,38.7,30.29,NNE,13,2.3,2.3,72,0.00,CLR,,0.00,WeatherDisplay:10.37,2013-01-04 18:59:00,
2013-01-04 11:04:00,47.7,39.1,30.29,East,79,1.1,0.0,72,0.00,CLR,,0.00,WeatherDisplay:10.37,2013-01-04 19:04:00,
2013-01-04 11:09:00,48.3,39.3,30.29,NNE,21,3.5,3.5,71,0.00,CLR,,0.00,WeatherDisplay:10.37,2013-01-04 19:09:00,
2013-01-04 11:14:00,48.8,40.2,30.29,NE,53,2.3,2.3,72,0.00,CLR,,0.00,WeatherDisplay:10.37,2013-01-04 19:14:00,
2013-01-04 11:19:00,49.6,40.9,30.28,ESE,107,1.1,1.1,72,0.00,CLR,,0.00,WeatherDisplay:10.37,2013-01-04 19:19:00,
2013-01-04 11:24:00,50.1,39.9,30.28,NE,38,3.5,3.5,68,0.00,CLR,,0.00,WeatherDisplay:10.37,2013-01-04 19:24:00,
2013-01-04 11:29:00,50.6,40.4,30.28,ENE,65,3.5,3.5,68,0.00,CLR,,0.00,WeatherDisplay:10.37,2013-01-04 19:29:00,
2013-01-04 11:34:00,50.8,39.8,30.27,NNE,27,2.3,2.3,66,0.00,CLR,,0.00,WeatherDisplay:10.37,2013-01-04 19:34:00,
2013-01-04 11:40:00,51.4,40.4,30.27,NE,34,2.3,2.3,66,0.00,CLR,,0.00,WeatherDisplay:10.37,2013-01-04 19:40:00,
2013-01-04 11:45:00,51.9,40.1,30.27,East,79,2.3,2.3,64,0.00,CLR,,0.00,WeatherDisplay:10.37,2013-01-04 19:45:00,
2013-01-04 11:50:00,52.7,40.0,30.26,ENE,70,1.1,1.1,62,0.00,CLR,,0.00,WeatherDisplay:10.37,2013-01-04 19:50:00,
2013-01-04 11:55:00,53.4,39.9,30.26,East,91,3.5,3.5,60,0.00,CLR,,0.00,WeatherDisplay:10.37,2013-01-04 19:55:00,
2013-01-04 12:00:00,53.6,39.2,30.26,NE,45,3.5,3.5,58,0.00,CLR,,0.00,WeatherDisplay:10.37,2013-01-04 20:00:00,
2013-01-04 12:05:00,53.8,39.4,30.25,ENE,58,0.0,0.0,58,0.00,CLR,,0.00,WeatherDisplay:10.37,2013-01-04 20:05:00,
2013-01-04 12:10:00,54.4,39.9,30.25,ESE,115,1.1,1.1,58,0.00,CLR,,0.00,WeatherDisplay:10.37,2013-01-04 20:10:00,
2013-01-04 12:15:00,55.1,39.7,30.25,East,79,2.3,2.3,56,0.00,CLR,,0.00,WeatherDisplay:10.37,2013-01-04 20:15:00,
2013-01-04 12:20:00,55.3,39.4,30.25,NE,56,3.0,3.0,55,0.00,CLR,,0.00,WeatherDisplay:10.37,2013-01-04 20:20:00,
2013-01-04 12:25:00,55.5,40.0,30.24,SSW,203,1.1,1.1,56,0.00,CLR,,0.00,WeatherDisplay:10.37,2013-01-04 20:25:00,
2013-01-04 12:30:00,56.0,40.5,30.24,NE,56,1.1,0.0,56,0.00,CLR,,0.00,WeatherDisplay:10.37,2013-01-04 20:30:00,
2013-01-04 12:35:00,56.7,40.7,30.23,SW,228,0.0,0.0,55,0.00,CLR,,0.00,WeatherDisplay:10.37,2013-01-04 20:35:00,
2013-01-04 12:40:00,57.4,40.4,30.23,SE,131,0.0,0.0,53,0.00,CLR,,0.00,WeatherDisplay:10.37,2013-01-04 20:40:00,
2013-01-04 12:45:00,57.8,40.8,30.23,East,88,2.3,2.3,53,0.00,CLR,,0.00,WeatherDisplay:10.37,2013-01-04 20:45:00,
2013-01-04 12:50:00,57.8,40.8,30.22,ESE,123,2.3,2.3,53,0.00,CLR,,0.00,WeatherDisplay:10.37,2013-01-04 20:50:00,
2013-01-04 12:56:00,57.7,40.2,30.22,South,170,2.3,2.3,52,0.00,CLR,,0.00,WeatherDisplay:10.37,2013-01-04 20:56:00,
2013-01-04 13:01:00,58.2,40.1,30.22,SE,146,2.3,2.3,51,0.00,CLR,,0.00,WeatherDisplay:10.37,2013-01-04 21:01:00,
2013-01-04 13:06:00,58.4,39.3,30.22,SE,139,3.5,3.5,49,0.00,CLR,,0.00,WeatherDisplay:10.37,2013-01-04 21:06:00,
2013-01-04 13:11:00,58.6,40.0,30.22,South,183,2.3,2.3,50,0.00,CLR,,0.00,WeatherDisplay:10.37,2013-01-04 21:11:00,
2013-01-04 13:16:00,58.6,41.0,30.21,South,174,3.5,3.5,52,0.00,CLR,,0.00,WeatherDisplay:10.37,2013-01-04 21:16:00,
2013-01-04 13:21:00,58.7,40.6,30.21,SSE,157,3.5,3.5,51,0.00,CLR,,0.00,WeatherDisplay:10.37,2013-01-04 21:21:00,
2013-01-04 13:26:00,58.8,40.7,30.21,SSE,167,3.5,3.5,51,0.00,CLR,,0.00,WeatherDisplay:10.37,2013-01-04 21:26:00,
2013-01-04 13:31:00,58.8,40.7,30.21,SE,132,3.5,3.5,51,0.00,CLR,,0.00,WeatherDisplay:10.37,2013-01-04 21:31:00,
2013-01-04 13:36:00,59.0,40.9,30.20,South,173,3.5,3.5,51,0.00,CLR,,0.00,WeatherDisplay:10.37,2013-01-04 21:36:00,
2013-01-04 13:41:00,59.3,41.2,30.20,SE,127,2.3,2.3,51,0.00,CLR,,0.00,WeatherDisplay:10.37,2013-01-04 21:41:00,
2013-01-04 13:46:00,59.7,40.0,30.20,SSE,151,2.3,2.3,48,0.00,CLR,,0.00,WeatherDisplay:10.37,2013-01-04 21:46:00,
2013-01-04 13:51:00,60.2,39.3,30.20,SE,143,2.3,2.3,46,0.00,CLR,,0.00,WeatherDisplay:10.37,2013-01-04 21:51:00,
2013-01-04 13:56:00,60.2,39.3,30.20,SE,128,2.3,2.3,46,0.00,CLR,,0.00,WeatherDisplay:10.37,2013-01-04 21:56:00,
2013-01-04 14:01:00,60.3,40.0,30.20,ESE,120,3.5,3.5,47,0.00,CLR,,0.00,WeatherDisplay:10.37,2013-01-04 22:01:00,
2013-01-04 14:06:00,60.1,38.7,30.20,South,180,4.6,4.6,45,0.00,CLR,,0.00,WeatherDisplay:10.37,2013-01-04 22:06:00,
2013-01-04 14:11:00,60.2,39.3,30.20,ESE,121,2.3,2.3,46,0.00,CLR,,0.00,WeatherDisplay:10.37,2013-01-04 22:11:00,
2013-01-04 14:16:00,60.6,39.7,30.19,SE,135,3.5,3.5,46,0.00,CLR,,0.00,WeatherDisplay:10.37,2013-01-04 22:16:00,
2013-01-04 14:21:00,61.0,40.1,30.19,SSW,200,2.3,2.3,46,0.00,CLR,,0.00,WeatherDisplay:10.37,2013-01-04 22:21:00,
2013-01-04 14:26:00,60.9,40.0,30.19,SSE,156,5.8,5.8,46,0.00,CLR,,0.00,WeatherDisplay:10.37,2013-01-04 22:26:00,
2013-01-04 14:31:00,60.5,40.2,30.19,SSE,153,2.3,2.3,47,0.00,CLR,,0.00,WeatherDisplay:10.37,2013-01-04 22:31:00,
2013-01-04 14:36:00,60.7,39.2,30.19,SSE,163,2.3,2.3,45,0.00,CLR,,0.00,WeatherDisplay:10.37,2013-01-04 22:36:00,
2013-01-04 14:41:00,61.2,40.8,30.19,SW,218,3.5,3.5,47,0.00,CLR,,0.00,WeatherDisplay:10.37,2013-01-04 22:41:00,
2013-01-04 14:46:00,61.2,40.8,30.19,SW,214,3.5,3.5,47,0.00,CLR,,0.00,WeatherDisplay:10.37,2013-01-04 22:46:00,
2013-01-04 14:51:00,61.3,40.9,30.19,SSE,165,2.3,2.3,47,0.00,CLR,,0.00,WeatherDisplay:10.37,2013-01-04 22:51:00,
2013-01-04 14:56:00,61.4,39.9,30.19,South,191,5.8,5.8,45,0.00,CLR,,0.00,WeatherDisplay:10.37,2013-01-04 22:56:00,
2013-01-04 15:01:00,60.9,40.0,30.19,SE,136,4.6,4.6,46,0.00,CLR,,0.00,WeatherDisplay:10.37,2013-01-04 23:01:00,
2013-01-04 15:06:00,60.8,39.9,30.19,SSE,155,5.8,5.8,46,0.00,CLR,,0.00,WeatherDisplay:10.37,2013-01-04 23:06:00,
2013-01-04 15:11:00,60.3,40.0,30.19,SSE,166,3.5,3.5,47,0.00,CLR,,0.00,WeatherDisplay:10.37,2013-01-04 23:11:00,
2013-01-04 15:16:00,60.5,40.7,30.19,SW,235,3.5,3.5,48,0.00,CLR,,0.00,WeatherDisplay:10.37,2013-01-04 23:16:00,
2013-01-04 15:21:00,60.7,40.9,30.19,South,173,5.8,5.8,48,0.00,CLR,,0.00,WeatherDisplay:10.37,2013-01-04 23:21:00,
2013-01-04 15:27:00,61.0,41.2,30.19,SSE,167,5.8,5.8,48,0.00,CLR,,0.00,WeatherDisplay:10.37,2013-01-04 23:27:00,
2013-01-04 15:32:00,60.5,41.2,30.19,South,179,2.3,2.3,49,0.00,CLR,,0.00,WeatherDisplay:10.37,2013-01-04 23:32:00,
2013-01-04 15:37:00,59.9,40.7,30.19,SSE,162,6.9,6.9,49,0.00,CLR,,0.00,WeatherDisplay:10.37,2013-01-04 23:37:00,
2013-01-04 15:42:00,59.5,40.8,30.19,South,188,5.8,5.8,50,0.00,CLR,,0.00,WeatherDisplay:10.37,2013-01-04 23:42:00,
2013-01-04 15:47:00,59.4,41.3,30.19,SSE,156,4.6,4.6,51,0.00,CLR,,0.00,WeatherDisplay:10.37,2013-01-04 23:47:00,
2013-01-04 15:52:00,59.2,41.6,30.19,SW,215,3.5,3.5,52,0.00,CLR,,0.00,WeatherDisplay:10.37,2013-01-04 23:52:00,
2013-01-04 15:58:00,59.3,41.7,30.19,SSE,154,3.5,3.5,52,0.00,CLR,,0.00,WeatherDisplay:10.37,2013-01-04 23:58:00,
2013-01-04 16:03:00,59.1,41.5,30.19,SSE,162,5.8,5.8,52,0.00,CLR,,0.00,WeatherDisplay:10.37,2013-01-05 00:03:00,
2013-01-04 16:08:00,59.0,41.4,30.19,SSE,156,3.5,3.5,52,0.00,CLR,,0.00,WeatherDisplay:10.37,2013-01-05 00:08:00,
2013-01-04 16:13:00,58.8,41.7,30.18,SSE,167,3.5,3.5,53,0.00,CLR,,0.00,WeatherDisplay:10.37,2013-01-05 00:13:00,
2013-01-04 16:18:00,58.7,42.1,30.18,SE,139,3.5,3.5,54,0.00,CLR,,0.00,WeatherDisplay:10.37,2013-01-05 00:18:00,
2013-01-04 16:23:00,58.5,42.4,30.18,SSE,166,3.0,3.0,55,0.00,CLR,,0.00,WeatherDisplay:10.37,2013-01-05 00:23:00,
2013-01-04 16:28:00,58.6,42.5,30.18,SSE,152,2.3,2.3,55,0.00,CLR,,0.00,WeatherDisplay:10.37,2013-01-05 00:28:00,
2013-01-04 16:33:00,58.0,41.9,30.18,SSE,163,3.5,3.5,55,0.00,CLR,,0.00,WeatherDisplay:10.37,2013-01-05 00:33:00,
2013-01-04 16:39:00,57.1,42.0,30.18,SSE,160,2.3,2.3,57,0.00,CLR,,0.00,WeatherDisplay:10.37,2013-01-05 00:39:00,
2013-01-04 16:44:00,56.4,42.2,30.18,South,173,2.3,2.3,59,0.00,CLR,,0.00,WeatherDisplay:10.37,2013-01-05 00:44:00,
2013-01-04 16:49:00,55.7,42.5,30.18,South,173,0.0,0.0,61,0.00,CLR,,0.00,WeatherDisplay:10.37,2013-01-05 00:49:00,
2013-01-04 16:54:00,54.9,42.1,30.18,South,179,1.1,1.1,62,0.00,CLR,,0.00,WeatherDisplay:10.37,2013-01-05 00:54:00,
2013-01-04 16:59:00,54.0,41.7,30.18,SSE,167,2.3,2.3,63,0.00,CLR,,0.00,WeatherDisplay:10.37,2013-01-05 00:59:00,
2013-01-04 17:04:00,53.5,42.4,30.19,WSW,242,2.3,2.3,66,0.00,CLR,,0.00,WeatherDisplay:10.37,2013-01-05 01:04:00,
2013-01-04 17:09:00,52.8,42.5,30.19,SW,236,1.1,1.1,68,0.00,CLR,,0.00,WeatherDisplay:10.37,2013-01-05 01:09:00,
2013-01-04 17:14:00,52.2,42.3,30.19,SW,236,1.1,1.1,69,0.00,CLR,,0.00,WeatherDisplay:10.37,2013-01-05 01:14:00,
2013-01-04 17:20:00,51.6,41.8,30.19,SSW,203,1.1,1.1,69,0.00,CLR,,0.00,WeatherDisplay:10.37,2013-01-05 01:20:00,
2013-01-04 17:25:00,51.2,41.7,30.19,South,185,1.1,1.1,70,0.00,CLR,,0.00,WeatherDisplay:10.37,2013-01-05 01:25:00,
2013-01-04 17:30:00,50.7,41.6,30.19,South,184,0.0,0.0,71,0.00,CLR,,0.00,WeatherDisplay:10.37,2013-01-05 01:30:00,
2013-01-04 17:35:00,50.2,41.5,30.19,South,184,0.0,0.0,72,0.00,CLR,,0.00,WeatherDisplay:10.37,2013-01-05 01:35:00,
2013-01-04 17:40:00,49.7,41.4,30.19,South,184,0.0,0.0,73,0.00,CLR,,0.00,WeatherDisplay:10.37,2013-01-05 01:40:00,
2013-01-04 17:45:00,49.2,41.6,30.19,South,184,0.0,0.0,75,0.00,CLR,,0.00,WeatherDisplay:10.37,2013-01-05 01:45:00,
2013-01-04 17:50:00,48.5,41.3,30.20,South,186,1.0,1.0,76,0.00,CLR,,0.00,WeatherDisplay:10.37,2013-01-05 01:50:00,
2013-01-04 17:55:00,48.0,40.8,30.20,South,188,1.1,1.1,76,0.00,CLR,,0.00,WeatherDisplay:10.37,2013-01-05 01:55:00,
2013-01-04 18:00:00,47.6,40.7,30.20,SSW,197,0.0,0.0,77,0.00,CLR,,0.00,WeatherDisplay:10.37,2013-01-05 02:00:00,
2013-01-04 18:05:00,47.3,40.8,30.20,SSW,197,0.0,0.0,78,0.00,CLR,,0.00,WeatherDisplay:10.37,2013-01-05 02:05:00,
2013-01-04 18:10:00,47.2,40.7,30.20,SSW,197,0.0,0.0,78,0.00,CLR,,0.00,WeatherDisplay:10.37,2013-01-05 02:10:00,
2013-01-04 18:15:00,46.6,40.4,30.21,SSW,197,0.0,0.0,79,0.00,CLR,,0.00,WeatherDisplay:10.37,2013-01-05 02:15:00,
2013-01-04 18:20:00,46.0,40.5,30.21,SSW,197,0.0,0.0,81,0.00,CLR,,0.00,WeatherDisplay:10.37,2013-01-05 02:20:00,
2013-01-04 18:25:00,45.6,40.4,30.21,SSW,197,0.0,0.0,82,0.00,CLR,,0.00,WeatherDisplay:10.37,2013-01-05 02:25:00,
2013-01-04 18:30:00,45.4,40.2,30.21,SW,232,1.1,1.1,82,0.00,CLR,,0.00,WeatherDisplay:10.37,2013-01-05 02:30:00,
2013-01-04 18:35:00,45.4,40.2,30.21,SW,233,0.0,0.0,82,0.00,CLR,,0.00,WeatherDisplay:10.37,2013-01-05 02:35:00,
2013-01-04 18:40:00,45.1,39.9,30.21,SW,233,0.0,0.0,82,0.00,CLR,,0.00,WeatherDisplay:10.37,2013-01-05 02:40:00,
2013-01-04 18:45:00,44.6,39.4,30.21,SW,233,0.0,0.0,82,0.00,CLR,,0.00,WeatherDisplay:10.37,2013-01-05 02:45:00,
2013-01-04 18:50:00,43.7,38.6,30.21,SW,233,0.0,0.0,82,0.00,CLR,,0.00,WeatherDisplay:10.37,2013-01-05 02:50:00,
2013-01-04 18:55:00,43.1,38.6,30.21,SW,233,0.0,0.0,84,0.00,CLR,,0.00,WeatherDisplay:10.37,2013-01-05 02:55:00,
2013-01-04 19:00:00,42.7,38.5,30.21,SW,233,0.0,0.0,85,0.00,CLR,,0.00,WeatherDisplay:10.37,2013-01-05 03:00:00,
2013-01-04 19:05:00,42.4,38.5,30.21,SW,233,0.0,0.0,86,0.00,CLR,,0.00,WeatherDisplay:10.37,2013-01-05 03:05:00,
2013-01-04 19:11:00,42.2,38.6,30.21,SW,233,0.0,0.0,87,0.00,CLR,,0.00,WeatherDisplay:10.37,2013-01-05 03:11:00,
2013-01-04 19:16:00,41.9,38.3,30.21,SW,233,0.0,0.0,87,0.00,CLR,,0.00,WeatherDisplay:10.37,2013-01-05 03:16:00,
2013-01-04 19:21:00,42.1,38.8,30.21,SW,233,0.0,0.0,88,0.00,CLR,,0.00,WeatherDisplay:10.37,2013-01-05 03:21:00,
2013-01-04 19:26:00,41.9,38.6,30.22,SW,233,0.0,0.0,88,0.00,CLR,,0.00,WeatherDisplay:10.37,2013-01-05 03:26:00,
2013-01-04 19:31:00,41.5,38.2,30.22,SW,233,0.0,0.0,88,0.00,CLR,,0.00,WeatherDisplay:10.37,2013-01-05 03:31:00,
2013-01-04 19:36:00,41.5,38.5,30.22,SW,233,0.0,0.0,89,0.00,CLR,,0.00,WeatherDisplay:10.37,2013-01-05 03:36:00,
2013-01-04 19:41:00,41.4,38.4,30.22,SW,233,0.0,0.0,89,0.00,CLR,,0.00,WeatherDisplay:10.37,2013-01-05 03:41:00,
2013-01-04 19:46:00,41.2,38.2,30.22,SW,233,0.0,0.0,89,0.00,CLR,,0.00,WeatherDisplay:10.37,2013-01-05 03:46:00,
2013-01-04 19:51:00,41.1,38.4,30.22,SW,233,0.0,0.0,90,0.00,CLR,,0.00,WeatherDisplay:10.37,2013-01-05 03:51:00,
2013-01-04 19:57:00,41.1,38.4,30.22,SW,233,0.0,0.0,90,0.00,CLR,,0.00,WeatherDisplay:10.37,2013-01-05 03:57:00,
2013-01-04 20:02:00,41.1,38.4,30.22,SW,233,0.0,0.0,90,0.00,CLR,,0.00,WeatherDisplay:10.37,2013-01-05 04:02:00,
2013-01-04 20:07:00,40.7,37.7,30.22,SW,233,0.0,0.0,89,0.00,CLR,,0.00,WeatherDisplay:10.37,2013-01-05 04:07:00,
2013-01-04 20:12:00,40.1,37.1,30.22,NNW,336,1.1,1.1,89,0.00,CLR,,0.00,WeatherDisplay:10.37,2013-01-05 04:12:00,
2013-01-04 20:17:00,39.8,37.1,30.22,NNW,335,1.1,1.1,90,0.00,CLR,,0.00,WeatherDisplay:10.37,2013-01-05 04:17:00,
2013-01-04 20:22:00,39.8,37.4,30.22,NW,323,0.0,0.0,91,0.00,CLR,,0.00,WeatherDisplay:10.37,2013-01-05 04:22:00,
2013-01-04 20:27:00,39.7,37.3,30.22,NW,323,0.0,0.0,91,0.00,CLR,,0.00,WeatherDisplay:10.37,2013-01-05 04:27:00,
2013-01-04 20:32:00,39.8,37.7,30.23,NW,323,0.0,0.0,92,0.00,CLR,,0.00,WeatherDisplay:10.37,2013-01-05 04:32:00,
2013-01-04 20:37:00,40.0,37.9,30.23,NW,323,0.0,0.0,92,0.00,CLR,,0.00,WeatherDisplay:10.37,2013-01-05 04:37:00,
2013-01-04 20:42:00,40.4,38.3,30.23,NW,323,0.0,0.0,92,0.00,CLR,,0.00,WeatherDisplay:10.37,2013-01-05 04:42:00,
2013-01-04 20:47:00,40.2,37.5,30.23,NW,325,0.0,0.0,90,0.00,CLR,,0.00,WeatherDisplay:10.37,2013-01-05 04:47:00,
2013-01-04 20:53:00,39.4,36.7,30.23,NNW,340,1.1,1.1,90,0.00,CLR,,0.00,WeatherDisplay:10.37,2013-01-05 04:53:00,
2013-01-04 20:58:00,39.3,36.9,30.24,NNW,338,1.1,1.1,91,0.00,CLR,,0.00,WeatherDisplay:10.37,2013-01-05 04:58:00,
2013-01-04 21:00:00,39.3,36.9,30.24,NNW,338,1.1,1.1,91,0.00,CLR,,0.00,WeatherDisplay:10.37,2013-01-05 05:00:00,
2013-01-04 21:01:00,39.3,36.9,30.24,NNW,338,1.1,1.1,91,0.00,CLR,,0.00,WeatherDisplay:10.37,2013-01-05 05:01:00,
2013-01-04 21:03:00,39.2,36.8,30.24,NW,326,2.3,2.3,91,0.00,CLR,,0.00,WeatherDisplay:10.37,2013-01-05 05:03:00,
2013-01-04 21:08:00,40.5,38.1,30.24,NW,318,0.0,0.0,91,0.00,CLR,,0.00,WeatherDisplay:10.37,2013-01-05 05:08:00,
2013-01-04 21:13:00,40.0,37.0,30.24,NW,316,0.0,0.0,89,0.00,CLR,,0.00,WeatherDisplay:10.37,2013-01-05 05:13:00,
2013-01-04 21:18:00,39.6,36.6,30.24,NW,318,0.0,0.0,89,0.00,CLR,,0.00,WeatherDisplay:10.37,2013-01-05 05:18:00,
2013-01-04 21:23:00,39.3,36.6,30.24,NW,318,0.0,0.0,90,0.00,CLR,,0.00,WeatherDisplay:10.37,2013-01-05 05:23:00,
2013-01-04 21:28:00,38.8,36.1,30.24,NW,318,0.0,0.0,90,0.00,CLR,,0.00,WeatherDisplay:10.37,2013-01-05 05:28:00,
2013-01-04 21:33:00,38.9,36.5,30.24,NW,319,0.0,0.0,91,0.00,CLR,,0.00,WeatherDisplay:10.37,2013-01-05 05:33:00,
2013-01-04 21:38:00,39.1,36.7,30.24,NW,318,0.0,0.0,91,0.00,CLR,,0.00,WeatherDisplay:10.37,2013-01-05 05:38:00,
2013-01-04 21:43:00,38.7,36.0,30.24,NW,319,0.0,0.0,90,0.00,CLR,,0.00,WeatherDisplay:10.37,2013-01-05 05:43:00,
2013-01-04 21:48:00,38.0,35.3,30.24,NW,319,0.0,0.0,90,0.00,CLR,,0.00,WeatherDisplay:10.37,2013-01-05 05:48:00,
2013-01-04 21:54:00,37.1,34.4,30.25,NW,319,1.1,1.1,90,0.00,CLR,,0.00,WeatherDisplay:10.37,2013-01-05 05:54:00,
2013-01-04 21:59:00,36.7,34.3,30.25,North,358,1.1,1.1,91,0.00,CLR,,0.00,WeatherDisplay:10.37,2013-01-05 05:59:00,
2013-01-04 22:04:00,37.3,35.5,30.25,NNW,338,1.1,1.1,93,0.00,CLR,,0.00,WeatherDisplay:10.37,2013-01-05 06:04:00,
2013-01-04 22:09:00,37.3,35.2,30.25,NNW,339,1.0,0.0,92,0.00,CLR,,0.00,WeatherDisplay:10.37,2013-01-05 06:09:00,
2013-01-04 22:15:00,38.2,36.4,30.25,NW,326,1.1,0.0,93,0.00,CLR,,0.00,WeatherDisplay:10.37,2013-01-05 06:15:00,
2013-01-04 22:20:00,38.5,36.4,30.25,NW,326,0.0,0.0,92,0.00,CLR,,0.00,WeatherDisplay:10.37,2013-01-05 06:20:00,
2013-01-04 22:25:00,38.2,35.8,30.25,NW,326,0.0,0.0,91,0.00,CLR,,0.00,WeatherDisplay:10.37,2013-01-05 06:25:00,
2013-01-04 22:30:00,38.0,35.6,30.25,NW,326,0.0,0.0,91,0.00,CLR,,0.00,WeatherDisplay:10.37,2013-01-05 06:30:00,
2013-01-04 22:35:00,37.4,35.0,30.25,NW,326,1.1,1.1,91,0.00,CLR,,0.00,WeatherDisplay:10.37,2013-01-05 06:35:00,
2013-01-04 22:40:00,37.1,34.7,30.25,NW,326,1.1,1.1,91,0.00,CLR,,0.00,WeatherDisplay:10.37,2013-01-05 06:40:00,
2013-01-04 22:45:00,36.8,34.4,30.25,NNW,327,1.1,1.1,91,0.00,CLR,,0.00,WeatherDisplay:10.37,2013-01-05 06:45:00,
2013-01-04 22:50:00,37.0,34.9,30.25,NW,326,0.0,0.0,92,0.00,CLR,,0.00,WeatherDisplay:10.37,2013-01-05 06:50:00,
2013-01-04 22:55:00,36.9,34.8,30.25,NW,326,0.0,0.0,92,0.00,CLR,,0.00,WeatherDisplay:10.37,2013-01-05 06:55:00,
2013-01-04 23:00:00,36.8,34.7,30.25,NW,326,0.0,0.0,92,0.00,CLR,,0.00,WeatherDisplay:10.37,2013-01-05 07:00:00,
2013-01-04 23:05:00,36.8,34.7,30.25,NW,326,0.0,0.0,92,0.00,CLR,,0.00,WeatherDisplay:10.37,2013-01-05 07:05:00,
2013-01-04 23:10:00,35.8,33.4,30.25,NNE,17,1.1,1.1,91,0.00,CLR,,0.00,WeatherDisplay:10.37,2013-01-05 07:10:00,
2013-01-04 23:15:00,35.7,33.6,30.25,NNE,17,0.0,0.0,92,0.00,CLR,,0.00,WeatherDisplay:10.37,2013-01-05 07:15:00,
2013-01-04 23:21:00,35.7,33.9,30.25,NNE,17,0.0,0.0,93,0.00,CLR,,0.00,WeatherDisplay:10.37,2013-01-05 07:21:00,
2013-01-04 23:26:00,35.9,34.1,30.25,NNE,18,0.0,0.0,93,0.00,CLR,,0.00,WeatherDisplay:10.37,2013-01-05 07:26:00,
2013-01-04 23:31:00,35.6,33.8,30.25,NNE,18,1.1,1.1,93,0.00,CLR,,0.00,WeatherDisplay:10.37,2013-01-05 07:31:00,
2013-01-04 23:36:00,35.6,33.8,30.25,NNE,16,0.0,0.0,93,0.00,CLR,,0.00,WeatherDisplay:10.37,2013-01-05 07:36:00,
2013-01-04 23:41:00,35.6,33.8,30.25,NNE,17,0.0,0.0,93,0.00,CLR,,0.00,WeatherDisplay:10.37,2013-01-05 07:41:00,
2013-01-04 23:46:00,35.6,33.8,30.25,NNE,16,0.0,0.0,93,0.00,CLR,,0.00,WeatherDisplay:10.37,2013-01-05 07:46:00,
2013-01-04 23:51:00,35.8,34.0,30.24,NNE,16,0.0,0.0,93,0.00,CLR,,0.00,WeatherDisplay:10.37,2013-01-05 07:51:00,
2013-01-04 23:56:00,36.0,34.2,30.24,NNE,16,0.0,0.0,93,0.00,CLR,,0.00,WeatherDisplay:10.37,2013-01-05 07:56:00,